Regional Weather Roundup
Issued by NWS Northern Indiana

Home | Current Version | Previous Version | Graphics & Text | Print | Product List | Glossary On
Versions: 1 2 3 4 5 6 7 8 9 10 11 12 13 14 15 16 17 18 19 20 21 22 23 24 25 26 27 28 29 30 31 32 33 34 35 36 37 38 39 40 41 42 43 44 45 46 47 48 49 50
000
ASUS43 KIWX 211900
RWRIWX

KIWX WEATHER ROUNDUP
NATIONAL WEATHER SERVICE NORTHERN INDIANA
200 PM EST SUN DEC 21 2014

NOTE: "FAIR" INDICATES FEW OR NO CLOUDS BELOW 12,000 FEET WITH NO
SIGNIFICANT WEATHER AND/OR OBSTRUCTIONS TO VISIBILITY.

* THESE STATIONS ARE NOT UNDER NWS QUALITY CONTROL. THEY ALSO MAY NOT
  REPORT WEATHER SUCH AS PRECIPITATION OR FOG.

INZ001>027-212000-
NORTHERN INDIANA

CITY           SKY/WX    TMP DP  RH WIND       PRES   REMARKS
GARY*          CLOUDY    36  25  64 SE12      30.15F
SOUTH BEND     PTSUNNY   37  28  70 S10       30.18F
GOSHEN         PTSUNNY   36  27  69 SE12      30.18F
ANGOLA*        CLOUDY    32  25  74 S8        30.19F WCI  25
FORT WAYNE     MOSUNNY   35  25  66 SE9       30.22F HAZE    WCI  28

$$
INZ028>050-212000-
CENTRAL INDIANA

CITY           SKY/WX    TMP DP  RH WIND       PRES   REMARKS
LAFAYETTE      PTSUNNY   37  28  70 S7        30.17F
KOKOMO*        MOSUNNY   36  28  75 SE14      30.19F
MUNCIE*        SUNNY     36  27  69 SE6       30.20F
INDIANAPOLIS   PTSUNNY   35  26  69 VRB6      30.19F WCI  30

$$
MIZ043>046-050>051-056>058-064>065-071>073-077>080-212000-
SOUTHWEST LOWER MICHIGAN

CITY           SKY/WX    TMP DP  RH WIND       PRES   REMARKS
BATTLE CREEK   CLOUDY    34  24  67 S13       30.18F WCI  25
BENTON HARBOR  CLOUDY    36  28  73 S10       30.16F
COLDWATER*     CLOUDY    32  25  74 MISG      30.19F
HILLSDALE*     CLOUDY    33  27  80 S8        30.19F WCI  25
HOLLAND        CLOUDY    37  28  70 SE10      30.17F
GRAND RAPIDS   CLOUDY    34  25  69 S8        30.17F HAZE    WCI  27
KALAMAZOO      CLOUDY    34  25  69 S10       30.18F WCI  26
STURGIS*       CLOUDY    34  27  75 S10       30.18F WCI  26
THREE RIVERS*  CLOUDY    33  27  76 S10       30.19F HAZE    WCI  25

$$
OHZ001>008-015>018-024>025-212000-
NORTHWEST OHIO

CITY           SKY/WX    TMP DP  RH WIND       PRES   REMARKS
DEFIANCE       CLOUDY    35  26  69 S7        30.23F WCI  29
FINDLAY        PTSUNNY   34  25  69 SE5       30.22F WCI  30
TOLEDO EXPRESS CLOUDY    33  26  75 S7        30.23F HAZE    WCI  27
TOLEDO METCALF PTSUNNY   35  24  64 VRB6      30.25F WCI  30
LIMA           SUNNY     38  25  59 SE8       30.20F

$$
AND FOR LAKE MICHIGAN COASTAL AND OPEN LAKE BUOY OBSERVATIONS

STATION/POSITION TEMP    WIND        PRES    VSBY  WAVE
                 AIR SEA DIR/SP/G                  HT/PER
                 (F)     (DEG/KT/KT) (MB)    (MI)  (FT/S)
CALUMET HARBOR    35     170/ 11/ 14 1019.9F
SAINT JOSEPH      36     140/  5/ 12 1021.3F
MICHIGAN CITY CG     37                N/A       6   1

$$
&&



USA.gov is the U.S. government's official web portal to all federal, state and local government web resources and services.